1483844401.13,54060,2.88,72414.5,-22.29,-53.69,-54.21,0,*67
1483844402.4,54061,2.88,72420.5,-22.29,-53.83,-54.21,0,*62
1483844403.65,54062,2.88,72424.5,-22.29,-53.39,-53.83,0,*6F
1483844404.92,54063,2.88,72422.5,-22.29,-53.45,-53.91,0,*66
1483844406.18,54064,2.88,72416.0,-22.31,-53.69,-54.13,0,*6B
1483844407.45,54065,2.88,72414.3,-22.29,-53.61,-54.13,0,*6B
1483844408.73,54066,2.88,72416.8,-22.27,-53.61,-53.83,0,*68
1483844410.0,54067,2.88,72418.5,-22.29,-53.83,-54.21,0,*64
1483844411.27,54068,2.88,72416.0,-22.31,-53.69,-53.91,0,*6A
1483844412.49,54069,2.88,72428.5,-22.29,-53.01,-53.39,0,*6E
1483844413.73,54070,2.88,72408.8,-22.29,-53.01,-53.45,0,*6D
1483844415.0,54071,2.88,72414.8,-22.29,-53.23,-53.61,0,*6A
1483844416.27,54072,2.88,72412.5,-22.29,-53.23,-53.61,0,*69
1483844417.53,54073,2.88,72426.0,-22.29,-53.15,-53.61,0,*6D
1483844418.78,54074,2.88,72418.8,-22.29,-53.39,-53.83,0,*68
1483844420.02,54075,2.88,72422.0,-22.27,-53.61,-54.07,0,*61
1483844421.24,54076,2.88,72416.3,-22.27,-53.69,-54.07,0,*6A
1483844422.51,54077,2.88,72420.8,-22.29,-53.23,-53.61,0,*6C
1483844423.76,54078,2.88,72408.8,-22.29,-53.39,-53.83,0,*64
1483844425.02,54079,2.88,72426.3,-22.29,-53.61,-54.13,0,*66
1483844426.3,54080,2.88,72422.8,-22.27,-53.45,-53.91,0,*65
1483844427.56,54081,2.88,72414.3,-22.29,-53.15,-53.45,0,*66
1483844428.8,54082,2.88,72418.0,-22.29,-53.61,-54.07,0,*67
1483844430.07,54083,2.88,72426.5,-22.29,-53.45,-53.91,0,*68
1483844431.34,54084,2.88,72416.0,-22.27,-53.45,-53.91,0,*61
1483844432.61,54085,2.88,72410.0,-22.27,-53.61,-54.13,0,*6B
1483844433.83,54086,2.88,72422.8,-22.29,-53.39,-53.69,0,*61
1483844435.11,54087,2.88,72422.0,-22.27,-53.45,-53.83,0,*61
1483844436.36,54088,2.88,72420.8,-22.27,-53.39,-53.91,0,*66
1483844437.64,54089,2.88,72422.8,-22.27,-53.45,-53.91,0,*6C
1483844438.91,54090,2.88,72418.8,-22.27,-53.61,-54.13,0,*6F
1483844440.16,54091,2.88,72404.0,-22.27,-53.69,-54.21,0,*67
1483844441.4,54092,2.88,72426.5,-22.29,-53.69,-54.13,0,*6B
1483844442.67,54093,2.88,72418.5,-22.27,-53.83,-54.21,0,*61
1483844443.92,54094,2.88,72418.3,-22.29,-53.39,-53.91,0,*65
1483844445.17,54095,2.88,72424.8,-22.27,-53.39,-53.83,0,*69
1483844446.39,54096,2.88,72422.3,-22.29,-53.39,-53.69,0,*60
1483844447.67,54097,2.88,72418.3,-22.27,-53.23,-53.83,0,*60
1483844448.88,54098,2.88,72422.0,-22.29,-53.69,-54.07,0,*64
1483844450.1,54099,2.88,72416.0,-22.27,-53.69,-54.07,0,*6B
1483844451.34,54100,2.88,72420.8,-22.29,-53.69,-54.13,0,*61
1483844452.61,54101,2.88,72428.8,-22.29,-53.61,-54.13,0,*68
1483844453.83,54102,2.88,72426.0,-22.27,-53.69,-54.07,0,*68
1483844455.1,54103,2.88,72420.5,-22.29,-53.45,-53.83,0,*62
1483844456.31,54104,2.88,72416.8,-22.29,-53.69,-54.07,0,*60
1483844457.55,54105,2.88,72424.3,-22.29,-53.69,-54.21,0,*65
1483844458.83,54106,2.88,72408.8,-22.27,-53.45,-53.83,0,*69
1483844460.08,54107,2.88,72410.5,-22.29,-53.39,-53.83,0,*6D
1483844461.36,54108,2.88,72410.0,-22.27,-52.93,-53.23,0,*67
1483844462.61,54109,2.88,72404.5,-22.27,-53.23,-53.69,0,*62
1483844463.86,54110,2.88,72408.5,-22.27,-53.15,-53.39,0,*6A
1483844465.13,54111,2.88,72410.8,-22.29,-52.93,-53.23,0,*61
1483844466.39,54112,2.88,72408.0,-22.29,-53.15,-53.61,0,*6B
1483844467.67,54113,2.88,72414.5,-22.27,-53.23,-53.45,0,*67
1483844468.94,54114,2.88,72426.0,-22.27,-53.15,-53.45,0,*65
1483844470.21,54115,2.88,72416.3,-22.27,-53.23,-53.61,0,*67
1483844471.46,54116,2.88,72414.8,-22.25,-53.39,-53.69,0,*65
1483844472.76,54117,2.88,72414.5,-22.25,-53.45,-53.83,0,*6B
1483844474.06,54118,2.88,72402.0,-22.25,-53.45,-53.91,0,*67
1483844475.31,54119,2.88,72418.8,-22.27,-53.01,-53.45,0,*6D
1483844476.59,54120,2.88,72416.0,-22.27,-52.73,-53.23,0,*63
1483844477.81,54121,2.88,72424.8,-22.23,-53.39,-53.77,0,*68
1483844479.11,54122,2.88,72424.8,-22.25,-53.61,-53.91,0,*68
1483844480.38,54123,2.88,72416.5,-22.21,-53.15,-53.39,0,*6C
1483844481.67,54124,2.88,72422.3,-22.25,-53.23,-53.61,0,*67
1483844482.97,54125,2.88,72424.0,-22.25,-53.23,-53.61,0,*66
1483844484.22,54126,2.88,72420.5,-22.23,-52.73,-53.09,0,*69
1483844485.5,54127,2.88,72414.3,-22.25,-53.23,-53.69,0,*6C
1483844486.72,54128,2.88,72414.0,-22.23,-53.39,-53.77,0,*61
1483844487.96,54129,2.88,72416.8,-22.23,-52.93,-53.39,0,*6B
1483844489.23,54130,2.88,72420.3,-22.23,-52.93,-53.15,0,*6D
1483844490.48,54131,2.88,72416.5,-22.23,-53.31,-53.77,0,*61
1483844491.72,54132,2.88,72422.5,-22.23,-53.15,-53.39,0,*6E
1483844492.99,54133,2.88,72412.8,-22.23,-53.31,-53.61,0,*64
1483844494.23,54134,2.88,72422.8,-22.23,-53.39,-53.53,0,*6A
1483844495.5,54135,2.88,72416.8,-22.23,-53.15,-53.61,0,*64
1483844496.74,54136,2.88,72426.5,-22.23,-53.09,-53.31,0,*6F
1483844497.99,54137,2.88,72426.3,-22.19,-53.01,-53.45,0,*6C
1483844499.25,54138,2.88,72426.5,-22.21,-53.39,-53.61,0,*65
1483844500.52,54139,2.88,72424.8,-22.21,-53.15,-53.39,0,*67
1483844501.81,54140,2.88,72416.0,-22.21,-53.15,-53.53,0,*65
1483844503.05,54141,2.88,72418.3,-22.21,-53.39,-53.77,0,*6C
1483844504.34,54142,2.88,72420.8,-22.21,-53.15,-53.61,0,*66
1483844505.58,54143,2.88,72420.5,-22.21,-53.09,-53.39,0,*67
1483844506.83,54144,2.88,72426.8,-22.19,-52.79,-53.23,0,*66
1483844508.08,54145,2.88,72416.8,-22.19,-53.01,-53.23,0,*69
1483844509.33,54146,2.88,72416.3,-22.21,-53.09,-53.39,0,*62
1483844510.6,54147,2.88,72414.3,-22.21,-52.87,-53.15,0,*6A
1483844511.81,54148,2.88,72420.3,-22.19,-52.79,-53.09,0,*62
1483844513.05,54149,2.88,72426.3,-22.17,-52.79,-53.01,0,*65
1483844514.33,54150,2.88,72416.3,-22.17,-52.87,-53.23,0,*6C
1483844515.57,54151,2.88,72416.3,-22.19,-53.09,-53.45,0,*64
1483844516.87,54152,2.88,72416.0,-22.17,-53.23,-53.45,0,*61
1483844518.13,54153,2.88,72412.8,-22.17,-53.09,-53.45,0,*68
1483844519.41,54154,2.88,72404.3,-22.17,-53.09,-53.31,0,*6C
1483844520.68,54155,2.88,72412.0,-22.17,-53.31,-53.69,0,*6B
1483844521.96,54156,2.88,72422.8,-22.15,-53.23,-53.53,0,*60
1483844523.23,54157,2.88,72412.5,-22.17,-53.09,-53.23,0,*6C
1483844524.48,54158,2.88,72430.0,-22.15,-53.01,-53.45,0,*69
1483844525.76,54159,2.88,72420.0,-22.17,-52.87,-53.23,0,*65
1483844527.02,54160,2.88,72418.5,-22.17,-53.09,-53.45,0,*68
1483844528.3,54161,2.88,72424.3,-22.17,-53.31,-53.77,0,*63
1483844529.57,54162,2.88,72430.5,-22.17,-53.31,-53.77,0,*60
1483844530.81,54163,2.88,72424.3,-22.15,-53.31,-53.69,0,*6C
1483844532.06,54164,2.88,72426.8,-22.15,-53.45,-53.69,0,*68
1483844533.28,54165,2.88,72418.8,-22.15,-53.69,-54.07,0,*68
1483844534.52,54166,2.88,72416.5,-22.15,-53.53,-54.07,0,*62
1483844535.77,54167,2.88,72412.0,-22.17,-53.69,-53.99,0,*68
1483844537.02,54168,2.88,72420.3,-22.15,-53.53,-53.99,0,*6C
1483844538.3,54169,2.88,72416.3,-22.17,-53.31,-53.69,0,*64
1483844539.54,54170,2.88,72416.8,-22.15,-53.31,-53.69,0,*6E
1483844540.81,54171,2.88,72418.5,-22.17,-53.31,-53.77,0,*62
1483844542.12,54172,2.88,72424.8,-22.17,-53.23,-53.31,0,*60
1483844543.37,54173,2.88,72432.3,-22.15,-53.09,-53.23,0,*68
1483844544.62,54174,2.88,72424.3,-22.15,-53.31,-53.77,0,*65
1483844545.87,54175,2.88,72412.0,-22.15,-53.01,-53.23,0,*66
1483844547.13,54176,2.88,72428.5,-22.15,-53.01,-53.31,0,*66
1483844548.38,54177,2.88,72430.8,-22.15,-53.01,-53.31,0,*67
1483844549.65,54178,2.88,72432.3,-22.15,-53.23,-53.53,0,*6C
1483844550.92,54179,2.88,72428.3,-22.11,-53.15,-53.45,0,*6B
1483844552.2,54180,2.88,72424.5,-22.11,-53.45,-53.91,0,*61
1483844553.42,54181,2.88,72420.3,-22.07,-53.39,-53.77,0,*64
1483844554.67,54182,2.88,72434.0,-22.11,-53.45,-53.99,0,*6B
1483844555.92,54183,2.88,72430.0,-22.11,-53.39,-53.83,0,*6A
1483844557.17,54184,2.88,72426.5,-22.15,-53.45,-53.77,0,*69
1483844558.42,54185,2.88,72428.3,-22.15,-53.45,-53.77,0,*68
1483844559.64,54186,2.88,72420.5,-22.15,-53.69,-54.07,0,*65
1483844560.91,54187,2.88,72430.3,-22.15,-53.91,-54.21,0,*67
1483844562.13,54188,2.88,72424.0,-22.11,-53.69,-53.99,0,*6F
1483844563.35,54189,2.88,72420.3,-22.15,-53.77,-54.07,0,*65
1483844564.6,54190,2.88,72426.5,-22.15,-53.09,-53.45,0,*65
1483844565.85,54191,2.88,72418.3,-22.15,-53.31,-53.77,0,*6E
1483844567.12,54192,2.88,72426.8,-22.17,-53.31,-53.69,0,*60
1483844568.37,54193,2.88,72422.3,-22.15,-53.45,-53.77,0,*6F
1483844569.61,54194,2.88,72428.3,-22.15,-53.31,-53.77,0,*6B
1483844570.83,54195,2.88,72420.8,-22.15,-53.69,-54.07,0,*67
1483844572.11,54196,2.88,72420.8,-22.15,-53.61,-53.91,0,*64
1483844573.38,54197,2.88,72424.0,-22.15,-53.45,-53.91,0,*63
1483844574.6,54198,2.88,72416.3,-22.15,-53.77,-54.07,0,*65
1483844575.87,54199,2.88,72424.0,-22.17,-53.53,-53.77,0,*60
1483844577.13,54200,2.88,72424.3,-22.15,-53.23,-53.69,0,*69
1483844578.4,54201,2.88,72426.3,-22.11,-53.23,-53.61,0,*64
1483844579.65,54202,2.88,72424.0,-22.15,-53.45,-53.77,0,*64
1483844580.92,54203,2.88,72426.0,-22.15,-53.45,-53.91,0,*6D
1483844582.2,54204,2.88,72428.8,-22.15,-53.45,-53.91,0,*6A
1483844583.48,54205,2.88,72426.0,-22.15,-53.45,-53.91,0,*6B
1483844584.72,54206,2.88,72428.5,-22.15,-53.45,-53.77,0,*60
1483844585.94,54207,2.88,72428.0,-22.15,-53.69,-54.07,0,*6F
1483844587.16,54208,2.88,72420.3,-22.15,-53.77,-54.07,0,*6F
1483844588.44,54209,2.88,72424.5,-22.15,-53.53,-53.91,0,*60
1483844589.69,54210,2.88,72430.5,-22.15,-53.53,-53.77,0,*60
1483844590.93,54211,2.88,72428.3,-22.15,-53.53,-54.07,0,*61
1483844592.15,54212,2.88,72430.8,-22.15,-53.77,-54.07,0,*64
1483844593.38,54213,2.88,72416.8,-22.15,-53.77,-53.99,0,*65
1483844594.62,54214,2.88,72416.5,-22.15,-53.31,-53.77,0,*60
1483844595.88,54215,2.88,72414.8,-22.15,-53.53,-53.99,0,*65
1483844597.12,54216,2.88,72424.0,-22.15,-53.45,-53.69,0,*6E
1483844598.39,54217,2.88,72420.3,-22.15,-53.31,-53.53,0,*65
1483844599.64,54218,2.88,72430.8,-22.15,-53.09,-53.53,0,*61
1483844600.89,54219,2.88,72424.8,-22.15,-53.31,-53.69,0,*62
1483844602.13,54220,2.88,72428.3,-22.11,-53.39,-53.61,0,*6C
1483844603.4,54221,2.88,72424.0,-22.07,-53.15,-53.53,0,*65
1483844604.65,54222,2.88,72420.5,-22.11,-53.23,-53.69,0,*6D
1483844605.91,54223,2.88,72418.0,-22.11,-53.61,-53.99,0,*65
1483844607.18,54224,2.88,72412.8,-22.11,-53.45,-53.91,0,*6C
1483844608.46,54225,2.88,72412.5,-22.11,-53.45,-53.91,0,*6D
1483844609.73,54226,2.88,72410.5,-22.11,-53.45,-53.91,0,*6E
1483844610.99,54227,2.88,72418.5,-22.07,-53.77,-53.91,0,*69
1483844612.26,54228,2.88,72418.8,-22.07,-53.83,-54.13,0,*60
1483844613.54,54229,2.88,72420.8,-22.11,-53.61,-53.91,0,*67
1483844614.81,54230,2.88,72420.8,-22.11,-53.61,-53.91,0,*6F
1483844616.07,54231,2.88,72426.5,-22.11,-53.23,-53.69,0,*6F
1483844617.29,54232,2.88,72424.5,-22.11,-53.39,-53.69,0,*67
1483844618.54,54233,2.88,72426.8,-22.11,-53.39,-53.91,0,*61
1483844619.81,54234,2.88,72422.8,-22.11,-53.45,-53.91,0,*6D
1483844621.09,54235,2.88,72410.5,-22.11,-53.45,-53.83,0,*6F
1483844622.34,54236,2.88,72424.5,-22.11,-53.69,-54.13,0,*6C
1483844623.59,54237,2.88,72422.3,-22.11,-53.69,-54.13,0,*6D
1483844624.83,54238,2.88,72416.0,-22.07,-53.31,-53.77,0,*6D
1483844626.08,54239,2.88,72422.3,-22.11,-53.45,-53.99,0,*68
1483844627.3,54240,2.88,72424.8,-22.15,-53.69,-54.07,0,*6C
1483844628.55,54241,2.88,72426.0,-22.15,-53.53,-54.07,0,*64
1483844629.82,54242,2.88,72424.3,-22.15,-53.53,-53.91,0,*6F
1483844631.04,54243,2.88,72428.5,-22.15,-53.69,-54.07,0,*6F
1483844632.26,54244,2.88,72430.5,-22.15,-53.69,-54.07,0,*68
1483844633.51,54245,2.88,72430.8,-22.11,-53.61,-53.99,0,*65
1483844634.73,54246,2.88,72424.5,-22.11,-53.69,-53.99,0,*6E
1483844635.95,54247,2.88,72418.5,-22.15,-53.77,-54.07,0,*64
1483844637.18,54248,2.88,72414.5,-22.15,-53.77,-54.07,0,*6B
1483844638.42,54249,2.88,72412.0,-22.15,-53.91,-54.07,0,*62
1483844639.67,54250,2.88,72408.8,-22.15,-53.99,-54.29,0,*6E
1483844640.91,54251,2.88,72408.5,-22.15,-54.07,-54.29,0,*6F
1483844642.19,54252,2.88,72408.3,-22.17,-53.77,-54.21,0,*66
1483844643.46,54253,2.88,72414.8,-22.15,-53.91,-54.29,0,*65
1483844644.71,54254,2.88,72418.5,-22.15,-53.99,-54.29,0,*6A
1483844645.95,54255,2.88,72424.0,-22.17,-54.07,-54.51,0,*66
1483844647.21,54256,2.88,72424.8,-22.15,-53.99,-54.45,0,*62
1483844648.45,54257,2.88,72424.8,-22.15,-53.99,-54.21,0,*61
1483844649.7,54258,2.88,72420.5,-22.15,-53.77,-54.21,0,*6E
1483844650.95,54259,2.88,72428.3,-22.17,-53.69,-54.07,0,*66
1483844652.2,54260,2.88,72424.8,-22.17,-53.77,-53.99,0,*63
1483844653.42,54261,2.88,72422.5,-22.19,-53.77,-54.07,0,*6C
1483844654.69,54262,2.88,72418.8,-22.17,-53.53,-53.99,0,*67
1483844655.96,54263,2.88,72416.0,-22.17,-53.53,-54.07,0,*66
1483844657.22,54264,2.88,72404.8,-22.17,-53.53,-54.07,0,*61
1483844658.49,54265,2.88,72400.3,-22.17,-53.91,-54.07,0,*6E
1483844659.77,54266,2.88,72410.3,-22.17,-53.53,-53.99,0,*63
1483844661.02,54267,2.88,72414.3,-22.15,-53.53,-53.99,0,*60
1483844662.26,54268,2.88,72418.5,-22.15,-53.45,-53.77,0,*68
1483844663.49,54269,2.88,72414.3,-22.15,-53.09,-53.69,0,*6E
1483844664.74,54270,2.88,72408.0,-22.15,-53.23,-53.69,0,*6E
1483844666.02,54271,2.88,72404.5,-22.15,-53.53,-53.91,0,*6F
1483844667.27,54272,2.88,72410.5,-22.15,-53.31,-53.69,0,*6F
1483844668.55,54273,2.88,72404.0,-22.17,-53.01,-53.23,0,*61
1483844669.82,54274,2.88,72414.0,-22.17,-53.01,-53.31,0,*65
1483844671.08,54275,2.88,72414.8,-22.15,-53.23,-53.69,0,*6B
1483844672.32,54276,2.88,72416.3,-22.15,-53.31,-53.69,0,*6B
1483844673.6,54277,2.88,72412.3,-22.17,-53.31,-53.77,0,*67
1483844674.87,54278,2.88,72404.0,-22.15,-53.53,-53.91,0,*66
1483844676.12,54279,2.88,72416.0,-22.15,-53.53,-53.99,0,*6F
1483844677.37,54280,2.88,72414.0,-22.17,-53.09,-53.77,0,*64
1483844678.62,54281,2.88,72404.0,-22.15,-53.45,-53.77,0,*6F
1483844679.86,54282,2.88,72406.8,-22.15,-53.53,-54.07,0,*6B
1483844681.11,54283,2.88,72402.3,-22.15,-53.69,-54.21,0,*67
1483844682.38,54284,2.88,72404.8,-22.17,-53.53,-53.99,0,*6F
1483844683.65,54285,2.88,72420.8,-22.17,-53.53,-54.07,0,*6E
1483844684.9,54286,2.88,72412.0,-22.15,-53.53,-53.99,0,*6F
1483844686.17,54287,2.88,72406.3,-22.15,-53.45,-53.91,0,*61
1483844687.43,54288,2.88,72406.5,-22.15,-53.23,-53.69,0,*69
1483844688.71,54289,2.88,72408.8,-22.15,-53.23,-53.53,0,*61
1483844689.99,54290,2.88,72410.0,-22.11,-53.23,-53.83,0,*60
1483844691.21,54291,2.88,72410.8,-22.11,-53.39,-53.69,0,*6E
1483844692.48,54292,2.88,72408.8,-22.11,-53.15,-53.61,0,*6B
1483844693.75,54293,2.94,72414.8,-22.11,-53.15,-53.45,0,*6C
1483844695.02,54294,2.88,72404.5,-22.11,-53.23,-53.45,0,*6E
1483844696.24,54295,2.88,72396.0,-22.07,-53.39,-53.69,0,*6D
1483844697.49,54296,2.88,72396.3,-22.11,-53.15,-53.39,0,*62
1483844698.74,54297,2.88,72408.8,-22.11,-53.39,-53.83,0,*6C
1483844699.99,54298,2.88,72412.3,-22.07,-53.39,-53.61,0,*68
1483844701.27,54299,2.88,72414.0,-22.11,-53.45,-53.83,0,*69
1483844702.51,54300,2.88,72414.8,-22.07,-53.39,-53.53,0,*69
1483844703.78,54301,2.88,72414.3,-22.11,-53.23,-53.61,0,*65
1483844705.05,54302,2.88,72414.3,-22.07,-53.31,-53.61,0,*62
1483844706.32,54303,2.88,72410.5,-22.07,-53.31,-53.61,0,*63
1483844707.57,54304,2.88,72408.8,-22.11,-53.23,-53.69,0,*68
1483844708.85,54305,2.88,72404.5,-22.07,-52.93,-53.15,0,*6F
1483844710.11,54306,2.88,72402.0,-22.11,-53.15,-53.45,0,*61
1483844711.37,54307,2.88,72404.3,-22.11,-53.39,-53.83,0,*64
1483844712.61,54308,2.88,72418.5,-22.07,-53.15,-53.39,0,*63
1483844713.84,54309,2.88,72414.8,-22.07,-53.09,-53.39,0,*6F
1483844715.11,54310,2.88,72418.5,-22.07,-53.53,-53.91,0,*6A
1483844716.36,54311,2.88,72420.8,-22.11,-53.45,-53.99,0,*63
1483844717.62,54312,2.88,72424.5,-22.11,-53.23,-53.69,0,*6F
1483844718.89,54313,2.88,72420.0,-22.07,-53.15,-53.53,0,*65
1483844720.16,54314,2.88,72420.8,-22.07,-53.31,-53.61,0,*65
1483844721.38,54315,2.88,72426.3,-22.11,-53.39,-53.69,0,*63
1483844722.63,54316,2.88,72420.3,-22.11,-53.39,-53.91,0,*67
1483844723.87,54317,2.88,72406.8,-22.07,-53.31,-53.77,0,*61
1483844725.12,54318,2.88,72398.5,-22.07,-53.31,-53.77,0,*6E
1483844726.42,54319,2.88,72392.8,-22.05,-53.53,-53.91,0,*61
1483844727.67,54320,2.88,72390.8,-22.07,-53.61,-54.07,0,*60
1483844728.89,54321,2.88,72394.8,-22.07,-53.39,-53.77,0,*6C
1483844730.11,54322,2.88,72418.3,-22.07,-53.39,-53.77,0,*6F
1483844731.39,54323,2.88,72414.5,-22.07,-52.73,-53.31,0,*63
1483844732.63,54324,2.88,72412.3,-22.07,-53.09,-53.31,0,*68
1483844733.91,54325,2.88,72404.8,-22.07,-53.31,-53.83,0,*6B
1483844735.19,54326,2.88,72402.3,-22.07,-53.53,-53.91,0,*6F
1483844736.46,54327,2.88,72414.3,-22.05,-53.61,-54.07,0,*65
1483844737.7,54328,2.88,72416.8,-22.07,-53.61,-54.07,0,*68
1483844738.97,54329,2.88,72404.5,-22.05,-53.39,-53.91,0,*6E
1483844740.23,54330,2.88,72408.5,-22.07,-53.77,-53.91,0,*6E
1483844741.47,54331,2.88,72408.8,-22.07,-53.39,-53.61,0,*6A
1483844742.74,54332,2.88,72416.0,-22.07,-53.31,-53.53,0,*60
1483844744.02,54333,2.88,72410.0,-22.07,-53.31,-53.83,0,*6C
1483844745.24,54334,2.88,72396.8,-22.07,-53.39,-53.77,0,*68
1483844746.51,54335,2.88,72414.0,-22.05,-53.39,-53.83,0,*60
1483844747.78,54336,2.88,72418.5,-22.07,-53.15,-53.53,0,*62
1483844749.06,54337,2.88,72398.5,-22.07,-53.53,-53.91,0,*6F
1483844750.33,54338,2.88,72408.3,-22.05,-53.39,-53.91,0,*6E
1483844751.61,54339,2.88,72412.5,-22.05,-53.39,-53.83,0,*6C
1483844752.89,54340,2.88,72412.5,-22.07,-53.61,-53.91,0,*6E
1483844754.14,54341,2.88,72414.0,-22.07,-53.39,-53.83,0,*61
1483844755.39,54342,2.88,72406.8,-22.11,-53.61,-53.99,0,*63
1483844756.64,54343,2.88,72398.5,-22.07,-53.39,-53.91,0,*60
1483844757.91,54344,2.88,72412.5,-22.07,-53.61,-53.91,0,*6A
1483844759.14,54345,2.88,72416.8,-22.11,-53.69,-53.99,0,*6C
1483844760.39,54346,2.88,72410.8,-22.07,-53.39,-53.91,0,*65
1483844761.64,54347,2.88,72408.5,-22.11,-53.61,-53.99,0,*66
1483844762.88,54348,2.88,72414.0,-22.07,-53.15,-53.77,0,*6D
1483844764.11,54349,2.88,72412.5,-22.11,-53.39,-53.69,0,*6A
1483844765.36,54350,2.88,72406.3,-22.11,-53.23,-53.69,0,*69
1483844766.61,54351,2.88,72406.0,-22.07,-53.31,-53.77,0,*63
1483844767.91,54352,2.88,72414.8,-22.05,-53.53,-53.83,0,*6D
1483844769.18,54353,2.88,72414.0,-22.07,-53.31,-53.61,0,*66
1483844770.43,54354,2.88,72414.3,-22.11,-53.61,-53.99,0,*64
1483844771.71,54355,2.88,72412.3,-22.07,-53.53,-53.91,0,*6B
1483844772.95,54356,2.88,72420.5,-22.07,-53.39,-53.91,0,*64
1483844774.24,54357,2.88,72420.3,-22.07,-53.53,-53.83,0,*6A
1483844775.49,54358,2.88,72412.5,-22.11,-53.39,-53.83,0,*6E
1483844776.76,54359,2.88,72418.3,-22.07,-53.31,-53.91,0,*63
1483844777.99,54360,2.88,72406.0,-22.11,-53.69,-53.99,0,*6B
1483844779.21,54361,2.88,72410.5,-22.07,-53.39,-53.77,0,*68
1483844780.43,54362,2.88,72408.5,-22.07,-53.09,-53.39,0,*62
1483844781.68,54363,2.88,72416.3,-22.11,-53.15,-53.39,0,*69
1483844782.93,54364,2.88,72406.5,-22.07,-53.09,-53.31,0,*6C
1483844784.2,54365,2.88,72400.8,-22.07,-52.93,-53.31,0,*6F
1483844785.47,54366,2.88,72402.3,-22.11,-53.15,-53.45,0,*67
1483844786.72,54367,2.88,72406.0,-22.07,-52.87,-53.31,0,*68
1483844787.97,54368,2.88,72414.0,-22.07,-53.09,-53.53,0,*64
1483844789.24,54369,2.88,72416.0,-22.05,-52.93,-53.39,0,*69
1483844790.48,54370,2.88,72410.3,-22.03,-53.09,-53.53,0,*69
1483844791.77,54371,2.88,72428.5,-22.05,-53.15,-53.61,0,*62
1483844793.08,54372,2.88,72416.3,-22.05,-53.53,-53.91,0,*6C
1483844794.32,54373,2.88,72404.8,-22.05,-53.39,-53.77,0,*69
1483844795.59,54374,2.88,72412.3,-22.05,-53.31,-53.77,0,*66
1483844796.89,54375,2.88,72420.8,-22.05,-53.53,-53.91,0,*6B
1483844798.13,54376,2.88,72414.8,-22.03,-53.31,-53.77,0,*62
1483844799.38,54377,2.88,72426.0,-22.05,-53.39,-53.77,0,*6D
1483844800.68,54378,2.88,72420.3,-22.05,-53.53,-53.91,0,*66
1483844801.98,54379,2.88,72420.0,-22.05,-53.53,-53.91,0,*67
1483844803.25,54380,2.88,72412.0,-22.05,-53.31,-53.77,0,*6D
1483844804.52,54381,2.88,72418.8,-22.05,-53.39,-53.91,0,*6C
1483844805.82,54382,2.88,72422.3,-22.05,-53.61,-53.91,0,*62
1483844807.06,54383,2.88,72422.5,-22.07,-53.39,-53.61,0,*63
1483844808.28,54384,2.88,72426.5,-22.07,-53.39,-53.77,0,*63
1483844809.53,54385,2.88,72426.3,-22.07,-53.39,-53.91,0,*6A
1483844810.8,54386,2.88,72418.8,-22.05,-53.53,-54.07,0,*6F
1483844812.1,54387,2.88,72412.8,-22.05,-53.53,-53.91,0,*66
1483844813.4,54388,2.88,72416.8,-22.05,-53.53,-53.91,0,*69
1483844814.67,54389,2.88,72410.8,-22.05,-53.53,-54.07,0,*60
1483844815.89,54390,2.88,72424.0,-22.07,-53.39,-53.77,0,*66
1483844817.14,54391,2.88,72424.8,-22.11,-53.61,-53.99,0,*6D
1483844818.39,54392,2.88,72422.3,-22.07,-53.77,-54.13,0,*6B
1483844819.66,54393,2.88,72424.0,-22.11,-53.91,-54.21,0,*64
1483844820.91,54394,2.88,72424.5,-22.07,-53.83,-54.07,0,*63
1483844822.18,54395,2.88,72426.8,-22.07,-53.83,-54.29,0,*6E
1483844823.45,54396,2.88,72420.5,-22.07,-53.53,-54.13,0,*69
1483844824.73,54397,2.88,72416.3,-22.11,-53.83,-54.21,0,*63
1483844825.98,54398,2.88,72414.3,-22.11,-53.69,-54.21,0,*68
1483844827.25,54399,2.88,72412.5,-22.11,-53.83,-54.13,0,*6C
1483844828.53,54400,2.88,72416.0,-22.11,-53.83,-54.13,0,*6B
1483844829.8,54401,2.88,72426.0,-22.11,-53.83,-54.21,0,*6B
1483844831.05,54402,2.88,72428.8,-22.15,-53.99,-54.45,0,*65
1483844832.33,54403,2.88,72426.8,-22.15,-53.91,-54.29,0,*66
1483844833.6,54404,2.88,72426.8,-22.15,-53.31,-53.91,0,*6F
1483844834.85,54405,2.88,72434.8,-22.15,-53.77,-54.21,0,*60
1483844836.13,54406,2.88,72430.5,-22.15,-53.91,-54.21,0,*6B
1483844837.37,54407,2.88,72430.3,-22.15,-53.69,-54.21,0,*6D
1483844838.62,54408,2.88,72420.0,-22.15,-53.31,-53.77,0,*6B
1483844839.88,54409,2.88,72420.0,-22.11,-53.39,-53.83,0,*6D
1483844841.12,54410,2.88,72426.0,-22.11,-53.45,-53.99,0,*65
1483844842.37,54411,2.88,72428.3,-22.15,-53.53,-54.07,0,*67
1483844843.62,54412,2.88,72424.3,-22.15,-53.69,-54.21,0,*69
1483844844.87,54413,2.88,72420.8,-22.15,-53.53,-53.99,0,*65
1483844846.11,54414,2.88,72430.3,-22.15,-53.69,-54.21,0,*6F
1483844847.39,54415,2.88,72418.3,-22.15,-53.53,-54.21,0,*67
1483844848.69,54416,2.88,72422.0,-22.17,-53.91,-54.29,0,*60
1483844849.96,54417,2.88,72426.5,-22.17,-53.53,-53.99,0,*63
1483844851.2,54418,2.88,72424.3,-22.15,-53.45,-54.07,0,*69
1483844852.42,54419,2.88,72426.3,-22.15,-53.69,-54.07,0,*66
1483844853.7,54420,2.88,72430.0,-22.15,-53.91,-54.29,0,*67
1483844854.94,54421,2.88,72424.8,-22.15,-53.69,-54.21,0,*69
1483844856.21,54422,2.88,72430.8,-22.17,-53.53,-54.07,0,*65
1483844857.46,54423,2.88,72436.3,-22.15,-53.53,-53.99,0,*66
1483844858.68,54424,2.88,72432.5,-22.15,-53.69,-54.07,0,*68
1483844859.95,54425,2.88,72428.5,-22.17,-53.77,-54.21,0,*60
1483844861.23,54426,2.88,72426.0,-22.17,-53.53,-53.99,0,*61
1483844862.49,54427,2.88,72420.5,-22.17,-53.45,-54.07,0,*67
1483844863.74,54428,2.88,72424.0,-22.17,-53.69,-54.07,0,*66
1483844865.0,54429,2.88,72428.0,-22.17,-53.53,-54.07,0,*6E
1483844866.25,54430,2.88,72430.0,-22.17,-53.69,-54.07,0,*6F
1483844867.52,54431,2.88,72424.8,-22.15,-53.91,-54.29,0,*67
1483844868.79,54432,2.88,72434.5,-22.15,-53.91,-54.21,0,*6C
1483844870.06,54433,2.88,72436.0,-22.17,-53.53,-54.07,0,*65
1483844871.34,54434,2.88,72432.5,-22.17,-53.53,-53.99,0,*62
1483844872.61,54435,2.88,72424.0,-22.17,-53.53,-53.99,0,*63
1483844873.88,54436,2.88,72418.0,-22.17,-53.53,-54.07,0,*60
1483844875.15,54437,2.88,72426.5,-22.17,-53.53,-54.07,0,*61
1483844876.42,54438,2.88,72426.5,-22.17,-53.31,-53.69,0,*65
1483844877.69,54439,2.88,72436.0,-22.17,-53.09,-53.53,0,*66
1483844878.94,54440,2.88,72418.8,-22.15,-53.23,-53.77,0,*64
1483844880.21,54441,2.88,72420.8,-22.17,-53.45,-53.77,0,*67
1483844881.51,54442,2.88,72422.3,-22.17,-53.31,-53.91,0,*6F
1483844882.81,54443,2.88,72418.8,-22.17,-53.45,-53.91,0,*6D
1483844884.06,54444,2.88,72426.0,-22.17,-53.09,-53.69,0,*65
1483844885.33,54445,2.88,72422.3,-22.15,-53.45,-53.91,0,*69
1483844886.61,54446,2.88,72426.5,-22.15,-53.45,-53.91,0,*6A
1483844887.91,54447,2.88,72424.0,-22.17,-53.45,-53.91,0,*69
1483844889.21,54448,2.88,72426.8,-22.17,-53.31,-53.91,0,*65
1483844890.48,54449,2.88,72422.5,-22.17,-53.53,-53.99,0,*68
1483844891.78,54450,2.88,72422.5,-22.17,-53.23,-53.53,0,*61
1483844893.05,54451,2.88,72432.8,-22.17,-53.45,-54.07,0,*66
1483844894.32,54452,2.88,72424.5,-22.17,-53.45,-53.99,0,*65
1483844895.62,54453,2.88,72426.0,-22.17,-53.45,-53.91,0,*6C
1483844896.89,54454,2.88,72420.8,-22.17,-53.45,-53.77,0,*63
1483844898.19,54455,2.88,72426.8,-22.17,-53.31,-53.91,0,*69
1483844899.49,54456,2.88,72426.3,-22.17,-53.45,-53.91,0,*69
1483844900.73,54457,2.88,72424.0,-22.17,-53.69,-54.07,0,*6E
1483844902.03,54458,2.88,72422.3,-22.17,-53.23,-53.53,0,*69
1483844903.31,54459,2.88,72424.8,-22.15,-53.45,-53.91,0,*64